Showing default

SHIYAN 24C 02, 58651

Orbit data source: Space-Track

SHIYAN 24C 02, 58651 is a payload satellite owned by CASC (CN) in SSO that was launched on Mon, 25 Dec 2023 UTC via a CHANG ZHENG 11 launch vehicle from the South China Sea Launch Area (SCSLA). Payload-class satellites include a variety of spacecraft equipped with specific instruments for various scientific and technological missions. These include communications satellites like Starlink; space stations such as the ISS; scientific satellites like the Hubble; Earth observation satellites from companies like Planet Labs, Umbra, and HawkEye 360; GPS; miniature CubeSats for education and research; and military/defense satellites.

Loading next visibility...
Identifier
58651, 2023-206B
Orbit
SSO
Country
Flag of CNCN / PRC
Related business
Manufacturer
SECM?
Mission
Operational Defense Technology
Bus & Motor
Unknown
Mass
~80 kg wet, ~80 kg dry
Launch date (UTC)
2023-12-25 (2 years ago)
Launch vehicle
CHANG ZHENG 11
Launch site
South China Sea Launch Area (SCSLA)
Object type
Payload
Rocket body
Debris
Shape & HBR
Box + 4 Pan, 4.0 m
Radar Cross Section
8.634 m², Medium (>0.1 m² and < 1m²)

Expand to show TLE details & history
Last TLE update: 12 hours ago

TLE from 12 hours ago
0 SHIYAN 24C 02
1 58651U 23206B   25346.77168341  .00003379  00000-0  29424-3 0  9991
2 58651  97.3849 319.3609 0002512  60.4480 299.6993 14.97535527107407
Epoch: 2025-12-12T18:31Z
TLE epoch observation values (Epoch: 2025-12-12T18:31:13.446Z)
Latitude
-0.00004°
Longitude
-40.15364°
Altitude
576.709 km
Speed
7.573 km/s
True Right ascension
21h 17m 26s
True Declination
0° 00' 00"
Sunlit
Object was in daylight at epoch
Visualization orbit readout
Latitude
Unknown
Longitude
Unknown
Altitude
Unknown
Speed
Unknown
Apparent Right ascension
Unknown
Apparent Declination
Unknown
Sunlit
N/A
Visualization observer readout
Local Sidereal Time
05:23:58
Azimuth
Unknown
Elevation
Unknown
Doppler factor
Unknown
Orbital elements
Apogee altitude
573.255 km
Perigee altitude
569.763 km
Semi-major axis
6,949.646 km
Eccentricity
0.00025
Inclination
97.3849°
RAAN
319.3609°
Arg. of periapsis
60.448°
True anomaly
299.67429°
Mean anomaly
299.6993°
Eccentric anomaly
299.6868°
Mean motion
3.74627 °/min
Orbital period
96.1 mins
BSTAR
0.00029424
Loading maneuver chart data...
Computing Atmospheric mass density...
Loading historical data...
Loading historical data...
Loading historical data...
Loading historical data...
Loading historical data...
Loading historical data...
Loading historical data...
Other satellites on launch #206 in the year 2023 (2023-12-25 UTC)

Documentation

Showing up to 5 results
|